Overview Statistics Trail Chart Weather Telemetry Raw packets
 

This is the latest recevied weather packets stored in our database for station/object OE5RBO. If no packets are shown the sender has not sent any weather packets the latest 10 day(s).

<< 4 5 6 7 8 9 10 >>
Time Temp. Humidity Pressure Rain* Wind** Luminosity Snow
1788564373 25° C 58% 1016.4 hPa 0 mm - - -
1788563773 25° C 58% 1016.4 hPa 0 mm - - -
1788563173 25° C 58% 1016.4 hPa 0 mm - - -
1788562572 25° C 57% 1016.2 hPa 0 mm - - -
1788561972 25° C 58% 1016.2 hPa 0 mm - - -
1788561372 25° C 58% 1015.9 hPa 0 mm - - -
1788560771 24.44° C 58% 1015.9 hPa 0 mm - - -
1788560171 25° C 58% 1015.9 hPa 0 mm - - -
1788559571 25° C 57% 1015.9 hPa 0 mm - - -
1788558970 25° C 57% 1015.8 hPa 0 mm - - -
1788557769 25° C 57% 1015.9 hPa 0 mm - - -
1788557169 25° C 57% 1015.8 hPa 0 mm - - -
1788556569 25° C 57% 1015.9 hPa 0 mm - - -
1788555968 25° C 57% 1015.8 hPa 0 mm - - -
1788554768 25° C 57% 1015.8 hPa 0 mm - - -
1788552967 25.56° C 55% 1015.8 hPa 0 mm - - -
1788552366 26.11° C 53% 1015.8 hPa 0 mm - - -
1788551165 26.11° C 51% 1015.7 hPa 0 mm - - -
1788550565 26.67° C 51% 1015.7 hPa 0 mm - - -
1788549364 26.67° C 50% 1015.6 hPa 0 mm - - -
1788548164 26.67° C 50% 1015.4 hPa 0 mm - - -
1788547563 26.67° C 50% 1015.3 hPa 0 mm - - -
1788546963 27.22° C 51% 1015.2 hPa 0 mm - - -
1788545762 27.22° C 51% 1014.9 hPa 0 mm - - -
1788545162 27.22° C 53% 1014.8 hPa 0 mm - - -

* Rain since midnight (hover to see other rain measurements)
** Current wind speed in m/s (hover to see current wind gust speed)